Resultado: 05/11/2017 - RESULTADO GERAL MASCULINO 10 KM

Posição Nome Tempo
1 MARCELO BAROBOSA DE SOUZA 316 00:32:43
2 REGINALDO DE BRITO 349 00:37:20
3 TIAGO CHAGAS 352 00:37:21
4 GUILHERME ROBERTO MORAIS 364 00:38:05
5 EUSEBIO JOSE GOMES 309 00:38:35
6 LUIZ HENRIQUE PEREIRA 346 00:38:41
7 CARLOS ROGERIO ANCELMO 367 00:38:57
8 ARLIVILINO NEVES 337 00:39:05
9 IVANIR APARECIDO MAIA 356 00:39:32
10 DANI EVELINS ROGER DOS SANTOS 323 00:39:33
11 PAULO CESAR GOMES 320 00:40:02
12 JOSIMAR KURUNCZI 360 00:40:20
13 ALESHON DIEGO MAKOHIN 301 00:40:59
14 CRISTIANO TOSSANI 307 00:41:41
15 MARCOS RODRIGO DA SILVA 322 00:41:46
16 FERNANDO RIBEIRO ROSA 340 00:41:51
17 PAULO VIRCHES 342 00:42:42
18 JOSÉ CARLOS RAMOS 366 00:42:49
19 MOISANIEL ALEX VENERIO 334 00:43:56
20 JOSÉ DE ALMEIDA 336 00:44:04
21 FABIANO BATISTA SILVERIO 328 00:44:12
22 JOSÉ DONIZETE DE OLIVEIRA 324 00:44:39
23 ANTONIO ROSALINO CAMARGO 361 00:45:16
24 OTAVIO AUGUSTO MARQUES FERREIRA 319 00:45:49
25 ERICK RODRIGO DE OLIVERA 308 00:48:08
26 IZAQUE ANVERSI COQUI 32 00:48:43
27 IRINEU PEDRO DUBAS 341 00:49:13
28 FRANCISCO F. PRIMO 368 00:49:57
29 LUIZ ANTONIO GUIMARÃES 345 00:50:00
30 EMIDIO FERREIRA LIMA 327 00:50:08
31 CARLOS ALBERTO VELOZO 335 00:50:31
32 JEFERSON POLICARPO DA SILVA 347 00:51:59
33 EDGAR JUSTINO DE OLIVEIRA 339 00:52:18
34 ROBERTO VAGNER DA SILVA 321 00:53:39
35 V ALDENICE SILVERIO DA SILVA FERNANDES 370 00:54:31
36 AIRTON DOMINGUES 300 00:59:07
37 ANGELO JAMIEL PINTO MARTINS 303 01:01:47
38 JOÃO BATISTA B. ANSELMO 326 01:03:15
39 JOAO GABRIEL VICTORINO 314 01:11:33
40 FERNANDO ANDRE DO NASCIMENTO 312 01:52:57
<< Voltar